Snowfall_Accumulation
3.2 8.2 10.2 5.1 3.9 3.3 3.4 3.7 3.2 1.8 0.6 1.0 1.2 0.9 0.2 0.1 0.1 0.1 0.4 0.2 0.1 0.1 0.0 0.0 0.0 0.0 0.0 0.0 0.0 0.0 0.0 0.0 0.0 0.0 0.0 0.0 0.1 0.0 0.0 0.0 0.0 0.0 0.0 0.0
6.9 8.1 3.7 1.7 1.9 3.3 4.5 5.3 3.7 1.6 0.8 1.2 1.4 0.9 0.3 0.1 0.2 0.3 0.3 0.2 0.1 0.1 0.0 0.0 0.0 0.0 0.0 0.0 0.0 0.0 0.0 0.0 0.0 0.0 0.0 0.0 0.0 0.0 0.0 0.0 0.0 0.0 0.0 0.0
7.8 3.6 0.9 2.4 3.7 5.1 5.1 4.7 3.4 3.0 2.1 1.6 2.7 2.6 0.8 0.4 0.3 0.5 0.5 0.4 0.2 0.2 0.1 0.1 0.1 0.1 0.1 0.0 0.0 0.0 0.0 0.0 0.0 0.0 0.0 0.0 0.0 0.0 0.0 0.0 0.0 0.0 0.0 0.0
4.2 1.3 1.6 3.3 4.0 4.8 6.5 2.3 2.1 3.0 5.3 6.4 5.1 8.4 2.2 0.9 0.6 0.6 0.5 0.6 0.3 0.3 0.2 0.1 0.2 0.1 0.1 0.1 0.1 0.0 0.0 0.0 0.0 0.0 0.0 0.0 0.0 0.0 0.0 0.0 0.0 0.0 0.0 0.0
5.1 1.6 2.3 4.3 3.0 2.8 3.4 1.3 2.0 3.6 6.1 8.7 5.0 9.3 3.5 1.5 1.9 1.6 0.6 0.6 0.7 0.5 0.3 0.3 0.2 0.2 0.1 0.1 0.1 0.1 0.0 0.0 0.0 0.0 0.0 0.0 0.0 0.0 0.0 0.0 0.0 0.0 0.0 0.0
3.1 0.7 1.4 2.3 1.0 1.5 1.7 2.3 3.4 4.8 9.7 18.9 7.2 8.1 5.4 3.7 4.1 2.8 1.1 0.6 0.6 0.7 0.5 0.4 0.4 0.2 0.1 0.1 0.1 0.1 0.0 0.0 0.0 0.0 0.0 0.0 0.0 0.0 0.0 0.0 0.0 0.0 0.0 0.0
6.7 3.0 1.5 1.2 3.3 2.8 4.3 11.1 26.6 29.9 29.3 16.5 3.2 5.3 5.6 3.7 3.4 3.5 2.3 1.7 1.1 0.6 0.5 0.5 0.5 0.3 0.2 0.2 0.1 0.1 0.1 0.1 0.1 0.0 0.0 0.0 0.0 0.0 0.0 0.0 0.0 0.1 0.1 0.1
11.3 10.4 2.7 1.3 2.9 5.8 5.2 8.4 18.2 20.8 15.5 7.2 3.6 5.1 4.3 2.9 2.3 2.6 2.1 1.4 0.9 0.5 0.5 0.5 0.5 0.6 0.6 0.2 0.2 0.1 0.2 0.2 0.2 0.0 0.0 0.0 0.0 0.0 0.0 0.0 0.1 0.1 0.1 0.0
11.5 9.0 2.2 0.9 0.9 2.7 7.0 7.8 5.8 11.6 9.5 6.5 5.4 4.1 3.3 1.9 2.0 2.1 2.4 1.5 1.2 1.1 0.5 0.6 0.6 0.7 0.4 0.3 0.2 0.1 0.1 0.2 0.3 0.3 0.1 0.0 0.0 0.0 0.0 0.0 0.1 0.1 0.1 0.0
11.4 10.6 3.6 1.6 1.6 2.1 4.1 5.6 9.6 16.6 15.1 8.8 5.1 4.2 4.8 3.6 2.7 2.3 2.4 2.8 1.4 1.2 0.7 0.7 0.8 0.7 0.4 0.4 0.3 0.2 0.1 0.1 0.2 0.2 0.1 0.0 0.1 0.0 0.0 0.2 0.1 0.1 0.0 0.1
9.4 12.2 8.4 4.6 6.5 6.9 6.4 9.1 12.3 14.1 12.1 11.2 7.4 5.6 4.7 3.8 2.9 2.7 2.3 2.4 1.9 1.8 1.5 1.4 1.1 1.0 0.5 0.7 0.3 0.3 0.3 0.4 0.3 0.1 0.1 0.3 0.0 0.2 0.1 0.2 0.2 0.2 0.2 0.1
9.4 13.0 12.0 6.5 2.8 2.9 5.1 8.6 11.0 16.7 13.3 8.5 8.4 6.4 3.3 2.6 2.3 2.2 2.3 2.3 2.3 1.9 1.8 1.7 1.8 1.1 0.7 0.9 0.7 0.7 0.4 0.4 0.3 0.3 0.2 0.1 0.2 0.3 0.2 0.3 0.4 0.2 0.2 0.3
13.8 17.9 18.4 11.5 6.7 4.6 6.9 7.6 8.9 10.7 12.2 9.8 8.9 6.4 2.7 2.0 1.9 1.8 1.8 1.8 2.0 1.9 1.8 1.8 1.8 1.0 1.0 1.1 1.0 1.1 1.0 0.7 0.4 0.3 0.2 0.2 0.4 0.3 0.4 0.2 0.2 0.3 0.3 0.3
13.1 19.5 14.7 13.2 10.0 9.7 9.7 7.4 7.2 11.1 15.5 10.2 6.7 5.4 3.9 3.3 3.0 2.4 2.0 2.1 2.4 2.2 2.1 2.0 1.8 1.6 1.5 1.3 1.1 1.1 0.9 1.0 1.0 0.9 0.4 0.6 0.7 0.6 0.7 0.5 0.7 1.1 1.7 1.8
13.8 17.2 7.9 4.5 4.2 5.1 6.4 5.7 5.8 8.2 8.7 8.6 5.3 4.6 4.9 4.1 3.8 3.4 2.8 2.2 2.4 2.9 3.0 2.7 1.9 1.8 1.7 1.4 1.1 1.2 1.1 1.4 1.3 1.5 1.2 1.0 1.1 1.5 1.1 0.9 1.1 1.4 2.0 2.7
14.3 15.7 7.9 4.6 2.9 3.6 4.9 3.8 3.6 4.3 4.6 5.4 4.7 5.3 4.1 3.3 2.9 3.0 2.9 2.8 3.0 3.5 3.8 3.4 2.5 2.1 2.1 2.1 2.0 1.5 1.6 1.5 1.6 1.6 1.5 1.9 1.7 2.3 2.2 1.2 1.1 1.4 2.1 2.6
13.7 14.0 12.6 8.3 3.6 5.6 8.1 5.0 4.1 4.4 4.4 5.0 6.0 5.8 4.5 3.8 3.6 3.6 3.3 3.3 3.2 3.4 3.6 3.5 3.1 3.0 2.7 2.4 2.5 2.9 2.0 1.5 1.5 1.8 1.8 2.3 2.6 2.6 2.5 2.3 2.1 2.5 3.1 3.1
11.3 13.0 16.2 12.3 9.1 12.9 6.4 3.8 3.6 3.9 4.9 4.7 5.3 5.2 4.5 4.5 4.4 4.0 3.7 3.8 3.7 3.5 3.3 3.5 3.4 3.3 2.8 2.4 2.6 2.2 2.3 1.9 1.5 1.6 2.1 2.2 2.5 3.1 2.7 2.3 2.3 2.7 2.3 2.1
5.9 12.4 18.5 16.1 12.2 7.0 3.7 3.3 4.3 5.1 6.1 5.1 4.9 4.6 3.9 3.7 3.6 3.9 3.4 3.4 3.8 3.5 3.3 3.2 2.9 3.2 2.5 2.1 2.6 2.3 2.1 1.9 1.7 1.9 2.0 2.3 2.3 2.8 2.5 2.3 2.1 1.9 1.8 1.7
5.9 10.8 18.9 17.1 13.5 7.4 4.2 2.5 2.8 4.2 7.0 4.6 4.2 4.6 4.2 4.1 6.0 5.7 4.2 3.9 3.4 2.9 2.8 2.8 2.8 2.6 2.1 1.8 2.1 1.8 1.9 1.8 2.0 2.0 2.2 1.9 1.9 2.3 1.8 1.8 1.4 1.2 1.0 2.0
10.8 15.9 18.0 14.2 11.4 5.2 3.5 2.5 2.1 7.0 9.2 4.5 4.2 4.7 4.7 5.8 7.2 6.1 4.7 4.1 3.7 3.4 3.0 2.9 2.6 2.8 2.6 2.1 1.8 1.8 1.5 2.1 1.9 1.7 1.7 1.4 1.4 1.4 1.2 1.4 1.2 1.3 1.6 1.8
7.4 10.4 11.2 10.6 11.9 6.5 3.2 3.4 6.2 7.5 3.9 3.9 4.2 4.1 4.7 4.7 4.2 4.1 4.2 3.8 3.2 3.2 2.7 2.6 2.6 2.9 2.7 2.4 2.1 1.9 1.8 1.9 1.7 2.1 2.2 1.9 1.6 1.4 1.4 2.0 1.9 1.6 1.8 1.8
5.4 7.0 7.6 7.7 6.7 5.0 4.0 4.5 4.5 3.6 3.5 3.3 3.6 3.8 4.1 4.3 4.1 4.2 3.8 3.6 3.4 3.0 2.6 2.4 2.7 2.9 2.4 2.2 2.1 2.3 1.9 1.9 2.0 1.9 1.8 1.8 1.6 1.6 1.7 2.1 2.4 2.2 2.3 3.0
4.2 3.8 5.1 5.1 4.2 3.6 3.4 3.3 3.1 2.9 3.3 3.3 3.4 3.9 3.9 4.4 4.2 4.0 3.8 3.5 3.1 3.0 2.2 2.4 2.4 2.8 2.9 2.5 2.6 2.3 2.2 2.2 2.3 2.2 1.6 1.3 1.4 1.4 1.5 1.7 2.4 3.1 3.3 4.5
3.7 3.6 4.9 4.6 3.2 2.7 2.4 2.6 2.9 3.2 3.0 3.0 3.1 3.5 3.7 3.8 3.8 3.8 3.7 3.6 3.5 3.0 2.5 2.3 2.5 2.8 3.1 2.6 2.5 2.4 2.8 3.0 2.8 2.1 1.9 1.6 1.4 1.4 1.6 1.6 2.0 3.1 3.3 5.3
2.9 3.8 4.8 4.4 2.8 3.4 2.9 2.2 2.4 2.9 3.0 2.9 3.0 3.1 2.9 3.1 3.6 3.5 3.4 3.2 3.3 3.0 2.7 2.4 2.8 3.1 3.0 3.0 2.9 2.8 3.1 3.5 3.9 2.9 2.3 2.1 2.1 1.7 1.7 1.9 2.1 1.7 2.4 2.7